Powrót do katalogu

COSMOS 970 DEB

AktywnyLEO
NORAD 10571·DEBRIS·🇷🇺 Russia

Wystrzelony Dec 21, 1977 z Baikonur Cosmodrome

Loading…

Następne Przeloty (najbliższe 24 godziny)

TLE

ŚwieżeSource: Space-Track

Epoka: Sep 14, 2026, 04:58 UTC

1 10571U 77121N   26257.20718120  .00000386  00000-0  36428-3 0  9998
2 10571  65.9362 188.7953 0150628 293.5948  64.9366 13.87213755451668

Śledź COSMOS 970 DEB w czasie rzeczywistym z AllMySat

Download on the App Store